Tracking 35274 objects as of 11-Sep-2026
HD Live streaming from Space Station
objects crossing your sky now

SL-12 R/B(AUX MOTOR)


SL-12 R/B(AUX MOTOR) is no longer on orbit


NORAD ID: 15161
Int'l Code: 1984-078E
Launch date: August 1, 1984
Source: Commonwealth of Independent States (former USSR) (CIS)
Launch site: TYURATAM MISSILE AND SPACE COMPLEX (TTMTR)
Decay date: 1986-10-27

Note: This is a ROCKET BODY
Your satellite tracking list
Your tracking list is empty




NASA's NSSDC Master Catalog

Two Line Element Set (TLE):
1 15161U 84078  E 85035.54961046  .00185998 -47865-4 +43672-3 0  9997
2 15161 046.5285 229.2083 7199185 052.1133 353.4291 02.45046252004301
Source of the keplerian elements: AFSPC